LVMGN SAVC-SAVE

Flight info

Callsign LVMGN
Flight time N/A
Altitude 30000
Route EGEGU1G EGEGU DCT IROLA DCT ASUTO DCT TEPUB DCT GIMBI
Aircraft SF50/L-SDGRWY/L

Departure

Time 2026-04-11 16:37
Airport General Enrique Mosconi International Airport (SAVC)

Arrival

Time N/A
Airport Esquel Brigadier Antonio Parodi International Airport (SAVE)
Time Latitude Longitude Altitude Speed Heading
2026-04-11 16:11 -45.78955 -67.46983 160 ft 0 kts 239°
2026-04-11 16:31 -45.78957 -67.46986 160 ft 2 kts 245°
2026-04-11 16:31 -45.78928 -67.46982 160 ft 11 kts 59°
2026-04-11 16:31 -45.78913 -67.46877 160 ft 0 kts 82°
2026-04-11 16:31 -45.78910 -67.46845 160 ft 11 kts 73°
2026-04-11 16:32 -45.78807 -67.46806 160 ft 18 kts
2026-04-11 16:32 -45.78742 -67.46676 160 ft 20 kts 77°
2026-04-11 16:32 -45.78708 -67.46483 160 ft 19 kts 73°
2026-04-11 16:32 -45.78688 -67.46309 160 ft 1 kts 77°
2026-04-11 16:33 -45.78679 -67.46234 160 ft 17 kts 81°
2026-04-11 16:33 -45.78651 -67.45998 160 ft 27 kts 79°
2026-04-11 16:33 -45.78618 -67.45750 160 ft 23 kts 79°
2026-04-11 16:34 -45.78594 -67.45541 160 ft 19 kts 77°
2026-04-11 16:34 -45.78566 -67.45358 160 ft 18 kts 79°
2026-04-11 16:34 -45.78546 -67.45181 160 ft 17 kts 76°
2026-04-11 16:34 -45.78519 -67.45012 160 ft 17 kts 79°
2026-04-11 16:35 -45.78461 -67.44874 160 ft 16 kts 23°
2026-04-11 16:35 -45.78359 -67.44845 160 ft 14 kts 339°
2026-04-11 16:35 -45.78319 -67.44946 160 ft 11 kts 262°
2026-04-11 16:35 -45.78320 -67.44961 160 ft 0 kts 263°
2026-04-11 16:36 -45.78354 -67.45244 160 ft 65 kts 260°
2026-04-11 16:36 -45.78461 -67.46107 379 ft 97 kts 263°
2026-04-11 16:37 -45.78603 -67.47098 828 ft 107 kts 265°
2026-04-11 16:37 -45.78883 -67.48174 1241 ft 125 kts 239°
2026-04-11 16:37 -45.79302 -67.49290 1606 ft 135 kts 257°
2026-04-11 16:37 -45.79608 -67.50626 1918 ft 149 kts 253°
2026-04-11 16:38 -45.80036 -67.52119 2158 ft 179 kts 249°
2026-04-11 16:38 -45.80597 -67.53861 2475 ft 206 kts 247°
2026-04-11 16:38 -45.81251 -67.55807 2788 ft 227 kts 246°
2026-04-11 16:38 -45.81967 -67.57926 3102 ft 243 kts 246°
2026-04-11 16:39 -45.82265 -67.60236 3669 ft 240 kts 277°
2026-04-11 16:39 -45.81979 -67.62600 4233 ft 242 kts 279°
2026-04-11 16:39 -45.81455 -67.64877 4759 ft 244 kts 294°
2026-04-11 16:39 -45.80921 -67.66290 5097 ft 245 kts 299°
2026-04-11 16:41 -45.80632 -67.66985 5255 ft 247 kts 300°
2026-04-11 16:41 -45.70467 -67.74561 8247 ft 265 kts 334°
2026-04-11 16:41 -45.68772 -67.75594 8634 ft 266 kts 334°
2026-04-11 16:42 -45.67073 -67.76634 9004 ft 268 kts 334°
2026-04-11 16:42 -45.65335 -67.77697 9369 ft 270 kts 334°
2026-04-11 16:42 -45.63621 -67.78743 9717 ft 271 kts 334°
2026-04-11 16:43 -45.62463 -67.79450 9943 ft 272 kts 334°